5.1,22.7,1012.6,202003090030
4.9,23.8,1012.7,202003090100
4.8,25.6,1012.4,202003090130
4.8,26.6,1012.4,202003090200
4.8,28.5,1012.4,202003090230
4.3,56.0,1012.3,202003090300
3.9,92.1,1012.2,202003090330
3.9,99.9,1012.0,202003090400
3.7,99.9,1011.9,202003090430
3.7,99.9,1011.9,202003090500
3.7,99.9,1011.7,202003090530
3.7,99.9,1011.9,202003090600
3.6,99.9,1011.9,202003090630
3.8,99.9,1012.0,202003090700
4.0,99.9,1012.2,202003090730
4.6,99.9,1012.5,202003090800
4.4,99.9,1012.8,202003090830
4.4,99.9,1013.3,202003090900
4.3,99.9,1013.5,202003090930
4.8,99.9,1013.9,202003091000
5.1,99.9,1014.2,202003091030
4.7,99.9,1014.4,202003091100
6.0,99.9,1014.5,202003091130
5.1,99.9,1014.5,202003091200
4.6,99.9,1014.3,202003091230
5.7,99.9,1014.3,202003091300
5.6,99.9,1014.5,202003091330
5.4,99.9,1014.8,202003091400
5.6,99.9,1014.8,202003091430
5.7,96.3,1015.0,202003091500
5.9,86.5,1015.3,202003091530
5.8,76.8,1015.5,202003091600
5.7,77.0,1016.0,202003091630
5.4,67.3,1016.2,202003091700
5.3,67.0,1016.6,202003091730
5.0,77.0,1016.9,202003091800
4.8,99.8,1017.1,202003091830
4.3,99.9,1017.5,202003091900
4.3,99.9,1017.9,202003091930
4.1,99.9,1018.1,202003092000
3.2,99.9,1018.2,202003092030
3.1,99.9,1018.2,202003092100
2.9,99.9,1018.5,202003092130
2.6,99.9,1018.6,202003092200
2.4,99.9,1018.7,202003092230
2.3,99.9,1018.8,202003092300
2.0,99.9,1018.7,202003092330
2.0,99.9,1018.4,202003100000
2.2,99.9,1018.1,202003100030
2.0,99.9,1017.8,202003100100
1.7,99.9,1017.5,202003100130
1.7,99.9,1017.5,202003100200
1.5,99.9,1017.2,202003100230
1.6,99.9,1016.9,202003100300
1.8,99.9,1016.6,202003100330
1.6,99.9,1017.1,202003100400
1.9,99.9,1016.9,202003100430
2.0,99.9,1016.7,202003100500
2.0,99.9,1015.7,202003100530
2.4,99.9,1015.5,202003100600
2.5,98.4,1015.4,202003100630
2.7,91.0,1015.8,202003100700
2.9,84.5,1015.6,202003100730
2.9,84.3,1015.5,202003100800
3.0,85.0,1015.3,202003100830
2.9,94.0,1014.9,202003100900
2.0,99.9,1014.9,202003100930
1.8,99.9,1015.0,202003101000
1.8,99.9,1014.7,202003101030
1.9,99.9,1014.2,202003101100
2.2,99.9,1014.0,202003101130
2.6,99.9,1013.5,202003101200
3.0,99.9,1013.2,202003101230
3.0,99.9,1013.1,202003101300
3.3,99.9,1012.9,202003101330
3.5,99.9,1012.8,202003101400
3.6,99.9,1012.6,202003101430
3.6,99.9,1012.8,202003101500
3.8,99.9,1012.6,202003101530
4.0,99.9,1012.7,202003101600
4.2,99.9,1012.9,202003101630
4.4,99.9,1012.9,202003101700
4.4,99.9,1013.0,202003101730
4.6,99.9,1013.2,202003101800
5.0,99.9,1013.0,202003101830
5.0,99.9,1013.3,202003101900
5.5,99.9,1013.5,202003101930
5.7,99.9,1013.7,202003102000
6.2,99.9,1013.6,202003102030
6.1,99.9,1014.0,202003102100
6.6,99.9,1014.2,202003102130
6.8,99.9,1014.4,202003102200
7.2,99.9,1014.5,202003102230
7.4,99.9,1014.5,202003102300
7.4,99.9,1014.5,202003102330
7.7,99.9,1014.3,202003110000
